Total_Precipitation_Accumulation
0.02 0.06 0.21 0.41 0.97 1.32 1.17 0.72 0.53 0.50 0.55 0.54 0.48 0.44 0.48 0.45 0.63 1.12 0.71 0.39 0.17 0.06 0.04 0.12 0.21 0.18 0.16 0.16 0.17 0.17 0.17 0.17 0.18 0.17 0.15 0.15 0.14 0.14 0.15 0.17 0.19 0.22 0.24 0.26 0.28 0.26 0.25 0.30 0.32
0.04 0.11 0.30 0.82 1.27 1.25 1.11 0.62 0.35 0.44 0.53 0.66 0.65 0.51 0.41 0.42 0.41 0.34 0.31 0.45 0.16 0.09 0.06 0.07 0.16 0.17 0.14 0.14 0.15 0.16 0.16 0.15 0.15 0.15 0.15 0.15 0.16 0.20 0.21 0.23 0.22 0.23 0.25 0.26 0.25 0.24 0.25 0.26 0.32
0.05 0.16 0.36 0.81 0.90 0.82 0.82 0.49 0.37 0.33 0.50 0.73 0.70 0.47 0.46 0.49 0.40 0.28 0.28 0.36 0.20 0.15 0.08 0.09 0.16 0.16 0.14 0.14 0.15 0.16 0.17 0.15 0.14 0.15 0.16 0.17 0.21 0.26 0.28 0.27 0.26 0.26 0.30 0.32 0.30 0.26 0.26 0.25 0.30
0.07 0.21 0.45 0.53 0.37 0.29 0.39 0.43 0.45 0.44 0.63 0.76 0.62 0.52 0.50 0.48 0.44 0.31 0.26 0.37 0.24 0.21 0.14 0.14 0.20 0.19 0.16 0.16 0.14 0.17 0.18 0.16 0.16 0.16 0.17 0.21 0.25 0.30 0.29 0.28 0.31 0.32 0.32 0.30 0.30 0.31 0.30 0.31 0.36
0.07 0.24 0.50 0.39 0.23 0.18 0.21 0.26 0.35 0.51 0.70 0.82 0.69 0.66 0.68 0.48 0.40 0.35 0.28 0.39 0.37 0.29 0.25 0.23 0.28 0.27 0.22 0.19 0.20 0.21 0.21 0.19 0.18 0.17 0.18 0.23 0.26 0.28 0.27 0.28 0.30 0.28 0.32 0.34 0.36 0.38 0.38 0.40 0.45
0.07 0.19 0.35 0.23 0.14 0.13 0.17 0.22 0.37 0.56 0.61 0.69 0.78 0.85 0.80 0.55 0.47 0.41 0.39 0.48 0.49 0.41 0.31 0.36 0.37 0.35 0.30 0.26 0.27 0.27 0.25 0.24 0.22 0.21 0.24 0.26 0.29 0.29 0.30 0.33 0.30 0.26 0.27 0.32 0.38 0.45 0.45 0.44 0.49
0.06 0.12 0.15 0.13 0.09 0.11 0.18 0.29 0.34 0.47 0.55 0.76 0.80 0.84 0.88 0.76 0.61 0.51 0.63 0.86 0.83 0.65 0.47 0.48 0.44 0.39 0.37 0.37 0.37 0.37 0.35 0.32 0.29 0.28 0.29 0.30 0.33 0.33 0.35 0.43 0.39 0.33 0.35 0.38 0.45 0.51 0.57 0.52 0.52
0.03 0.09 0.12 0.11 0.06 0.10 0.17 0.24 0.34 0.48 0.59 0.66 0.76 0.88 0.90 0.79 0.68 0.73 0.94 1.27 1.39 1.24 0.91 0.62 0.56 0.57 0.49 0.42 0.44 0.46 0.40 0.36 0.35 0.35 0.35 0.39 0.43 0.47 0.49 0.50 0.51 0.48 0.52 0.53 0.57 0.57 0.56 0.61 0.65
0.01 0.07 0.11 0.08 0.06 0.10 0.18 0.23 0.29 0.35 0.44 0.66 0.86 1.01 0.90 0.71 0.74 0.94 1.14 1.41 1.58 1.41 1.19 0.96 0.87 0.75 0.67 0.60 0.51 0.58 0.52 0.49 0.50 0.59 0.59 0.69 0.87 0.84 0.83 0.72 0.74 0.74 0.78 0.86 0.90 0.86 0.86 0.89 0.87
0.01 0.04 0.05 0.04 0.04 0.04 0.11 0.20 0.26 0.38 0.64 1.12 1.36 1.23 0.97 0.84 0.94 1.19 1.35 1.33 1.40 1.41 1.31 1.31 1.14 1.01 0.96 0.89 0.92 1.01 0.94 0.92 0.94 1.09 1.11 1.34 1.50 1.32 0.95 1.00 1.17 1.12 1.23 1.33 1.45 1.64 1.48 1.33 1.14
0.00 0.02 0.02 0.02 0.02 0.02 0.05 0.13 0.23 0.42 0.86 1.39 1.60 1.29 1.10 1.06 1.15 1.30 1.59 1.66 1.72 1.70 1.53 1.58 1.45 1.31 1.33 1.39 1.37 1.41 1.50 1.56 1.61 1.61 1.66 1.92 1.79 1.44 1.24 1.37 1.63 1.63 1.66 1.71 1.93 2.13 1.76 1.75 1.77
0.00 0.00 0.00 0.00 0.01 0.01 0.04 0.11 0.29 0.56 0.97 1.26 1.18 1.03 1.03 1.23 1.38 1.55 1.82 2.11 2.16 2.21 2.08 1.86 1.78 1.89 1.86 1.74 1.70 1.57 1.43 1.42 1.54 1.65 1.65 1.99 2.12 1.99 1.89 1.92 1.81 1.95 2.10 2.35 2.30 2.32 2.20 2.18 2.03
0.00 0.00 0.00 0.00 0.01 0.03 0.06 0.14 0.33 0.66 0.87 0.94 0.82 0.85 1.12 1.39 1.60 2.04 2.45 2.53 2.46 2.63 2.76 2.58 2.51 2.44 2.20 2.14 1.78 1.55 1.46 1.33 1.27 1.47 1.62 1.86 2.09 2.16 2.23 1.96 1.87 1.79 1.93 2.17 2.17 2.03 2.15 2.28 2.27
0.00 0.00 0.01 0.01 0.02 0.04 0.09 0.19 0.34 0.57 0.67 0.68 0.76 0.99 1.19 1.57 1.83 2.36 2.85 2.90 3.00 3.22 3.36 3.26 3.22 2.96 2.62 2.32 2.05 1.92 1.65 1.48 1.29 1.37 1.39 1.75 2.07 2.06 1.93 1.90 1.92 1.84 1.94 1.99 2.00 2.05 2.25 2.37 2.48
0.00 0.01 0.06 0.07 0.05 0.07 0.10 0.27 0.41 0.61 0.71 0.67 0.85 1.02 1.38 1.82 2.07 2.40 2.65 3.02 3.41 3.79 3.83 3.74 3.72 3.53 3.34 3.06 2.62 2.21 1.98 1.68 1.60 1.51 1.40 1.66 1.91 1.99 1.96 1.88 1.73 1.76 1.85 1.96 1.99 2.03 2.16 2.07 2.14
0.02 0.05 0.16 0.16 0.10 0.10 0.12 0.44 0.71 0.69 0.69 0.74 0.90 1.24 1.51 1.80 2.19 2.41 2.73 3.05 3.43 3.93 4.29 4.31 3.79 3.70 3.62 3.47 3.10 2.67 2.49 2.29 2.07 1.70 1.50 1.50 1.66 1.74 1.78 1.63 1.59 1.68 1.56 1.59 1.68 1.63 1.69 1.75 1.88
0.05 0.10 0.16 0.25 0.16 0.13 0.24 0.72 1.03 0.77 0.62 0.73 1.02 1.35 1.72 1.91 2.31 2.44 2.64 2.89 3.33 4.18 5.01 4.97 4.39 3.97 3.67 3.52 3.42 3.23 2.93 2.50 2.13 1.84 1.64 1.46 1.36 1.22 1.28 1.26 1.32 1.32 1.28 1.28 1.19 1.39 1.47 1.58 1.67
0.05 0.10 0.22 0.35 0.22 0.20 0.30 0.67 0.71 0.63 0.79 0.78 0.87 1.11 1.44 1.55 1.83 2.09 2.39 2.91 3.68 4.81 5.59 5.47 4.79 4.25 3.86 3.59 3.36 3.20 2.84 2.49 2.10 1.89 1.69 1.39 1.27 1.08 1.03 1.01 1.03 0.98 1.03 1.11 1.16 1.25 1.25 1.24 1.31
0.04 0.09 0.22 0.26 0.20 0.28 0.36 0.56 0.66 0.77 0.95 0.95 0.82 0.86 1.16 1.37 1.63 2.00 2.57 3.45 4.52 5.40 5.68 5.14 4.56 4.14 3.69 3.22 2.61 2.20 2.04 1.92 1.71 1.49 1.21 1.05 0.95 0.95 0.96 0.86 0.86 0.79 0.82 0.85 0.85 0.94 0.97 0.95 1.01
0.06 0.08 0.19 0.26 0.18 0.21 0.35 0.66 0.94 0.91 0.84 0.82 0.84 0.81 0.96 1.35 1.80 2.43 3.42 4.07 4.34 4.45 4.18 3.81 3.48 3.24 2.76 2.29 1.96 1.75 1.67 1.51 1.32 1.20 1.10 0.88 0.77 0.75 0.73 0.76 0.72 0.69 0.76 0.79 0.79 0.80 0.82 0.81 0.83
0.10 0.10 0.18 0.25 0.15 0.16 0.36 0.80 1.06 1.07 0.85 0.72 0.69 0.64 0.89 1.34 1.92 2.72 3.29 3.43 3.17 2.85 2.75 2.67 2.66 2.37 2.20 2.07 1.91 1.81 1.73 1.53 1.27 1.07 0.95 0.77 0.67 0.62 0.60 0.61 0.63 0.67 0.65 0.73 0.77 0.70 0.76 0.78 0.72
0.09 0.06 0.06 0.09 0.15 0.33 0.52 1.02 1.17 0.96 0.90 0.74 0.70 0.67 0.80 1.10 1.41 1.86 2.13 2.03 2.13 2.25 2.26 2.33 2.37 2.09 2.05 1.95 1.59 1.39 1.26 1.16 0.99 0.89 0.88 0.90 0.75 0.61 0.53 0.53 0.52 0.55 0.55 0.69 0.61 0.64 0.70 0.74 0.64
0.04 0.03 0.04 0.11 0.22 0.41 0.60 0.84 0.95 0.75 0.88 0.71 0.57 0.58 0.60 0.79 0.86 0.97 1.10 1.24 1.42 1.51 1.67 1.95 2.14 2.08 1.93 1.74 1.57 1.46 1.27 1.22 1.17 1.11 1.07 1.00 0.89 0.72 0.61 0.61 0.56 0.52 0.49 0.56 0.56 0.70 0.70 0.69 0.64
0.03 0.05 0.12 0.23 0.39 0.89 0.84 0.81 1.01 0.91 0.89 0.67 0.50 0.44 0.49 0.65 0.72 0.76 0.79 0.91 1.04 1.14 1.29 1.56 1.83 1.95 1.90 1.74 1.58 1.47 1.39 1.32 1.23 1.17 1.11 0.98 0.89 0.84 0.74 0.69 0.66 0.58 0.53 0.53 0.53 0.64 0.67 0.72 0.73
0.05 0.07 0.24 0.57 0.98 1.14 0.70 0.78 1.04 0.77 0.67 0.50 0.30 0.27 0.40 0.59 0.72 0.77 0.72 0.65 0.68 0.83 0.99 1.09 1.26 1.48 1.59 1.56 1.47 1.39 1.43 1.30 1.11 1.00 0.96 0.94 0.83 0.75 0.69 0.66 0.64 0.55 0.55 0.59 0.63 0.62 0.63 0.66 0.71
0.05 0.04 0.11 0.22 0.33 0.51 0.66 1.04 1.16 0.81 0.54 0.30 0.18 0.22 0.35 0.49 0.51 0.55 0.54 0.48 0.45 0.56 0.76 0.87 1.04 1.20 1.37 1.35 1.28 1.22 1.27 1.22 1.09 1.05 0.89 0.84 0.81 0.74 0.74 0.73 0.64 0.61 0.62 0.59 0.68 0.59 0.55 0.60 0.60
0.05 0.03 0.04 0.07 0.12 0.31 0.66 0.95 0.90 0.69 0.49 0.30 0.22 0.20 0.20 0.24 0.31 0.41 0.43 0.43 0.40 0.44 0.63 0.74 0.88 1.06 1.24 1.32 1.30 1.21 1.22 1.20 1.14 1.07 0.96 0.83 0.87 0.84 0.89 0.81 0.70 0.73 0.75 0.75 0.78 0.66 0.63 0.65 0.60
0.05 0.04 0.04 0.05 0.11 0.23 0.49 0.87 1.03 0.85 0.57 0.33 0.27 0.23 0.22 0.25 0.24 0.32 0.38 0.37 0.36 0.35 0.43 0.56 0.72 0.91 1.03 1.17 1.18 1.08 1.23 1.20 1.17 1.11 1.00 0.89 0.85 0.84 0.88 0.83 0.75 0.75 0.76 0.79 0.84 0.75 0.75 0.76 0.73
0.07 0.06 0.06 0.05 0.08 0.14 0.33 0.55 0.51 0.45 0.35 0.29 0.31 0.27 0.19 0.20 0.17 0.19 0.24 0.29 0.29 0.28 0.32 0.41 0.52 0.64 0.76 0.85 0.94 0.93 0.98 0.98 0.97 1.01 1.01 0.97 0.92 0.89 0.83 0.81 0.81 0.77 0.78 0.83 0.89 0.86 0.84 0.78 0.81
0.09 0.09 0.09 0.08 0.08 0.09 0.16 0.34 0.29 0.30 0.29 0.25 0.31 0.28 0.20 0.19 0.19 0.18 0.18 0.23 0.25 0.26 0.25 0.30 0.36 0.41 0.52 0.59 0.69 0.74 0.78 0.83 0.83 0.85 0.93 0.99 0.94 0.89 0.88 0.86 0.81 0.72 0.74 0.86 0.91 0.87 0.87 0.86 0.84